• In Deutschland
  • Länderverzeichnis
  • Für 7 Tage
  • Wassertemperatur
  • Satellitenkarten
  • Wetterkarte
  • Widgets
  • user-avatar
    Anmelden

    Stündliche Wetter Julara

    Heute, 29 März, Mittwoch

    Zeit Temperatur Niederschläge Wind Luftdruck Luftfeuchtigkeit
    00:00 +29°C° 0 mm 4 m/S 716 mmHg 28%
    01:00 +28°C° 0 mm 4 m/S 716 mmHg 29%
    02:00 +28°C° 0 mm 4 m/S 716 mmHg 30%
    03:00 +27°C° 0 mm 4 m/S 716 mmHg 31%
    04:00 +27°C° 0 mm 4 m/S 716 mmHg 31%
    05:00 +26°C° 0 mm 4 m/S 716 mmHg 32%
    06:00 +26°C° 0 mm 3 m/S 716 mmHg 33%
    07:00 +27°C° 0 mm 4 m/S 717 mmHg 30%
    08:00 +29°C° 0 mm 4 m/S 717 mmHg 27%
    09:00 +32°C° 0 mm 4 m/S 718 mmHg 24%
    10:00 +34°C° 0 mm 4 m/S 717 mmHg 22%
    11:00 +36°C° 0 mm 4 m/S 717 mmHg 20%
    12:00 +37°C° 0 mm 4 m/S 717 mmHg 18%
    13:00 +39°C° 0 mm 5 m/S 717 mmHg 17%
    14:00 +39°C° 0 mm 5 m/S 717 mmHg 17%
    15:00 +40°C° 0 mm 6 m/S 716 mmHg 16%
    16:00 +39°C° 0 mm 7 m/S 716 mmHg 17%
    17:00 +37°C° 0 mm 8 m/S 717 mmHg 18%
    18:00 +35°C° 0 mm 8 m/S 717 mmHg 19%
    19:00 +34°C° 0 mm 9 m/S 717 mmHg 19%
    20:00 +32°C° 0 mm 10 m/S 718 mmHg 20%
    21:00 +29°C° 0 mm 10 m/S 719 mmHg 21%
    22:00 +28°C° 0 mm 11 m/S 719 mmHg 28%
    23:00 +26°C° 0 mm 11 m/S 720 mmHg 35%

    Morgen, 30 März, Donnerstag

    Zeit Temperatur Niederschläge Wind Luftdruck Luftfeuchtigkeit
    00:00 +24°C° 0 mm 11 m/S 720 mmHg 42%
    01:00 +22°C° 0 mm 11 m/S 720 mmHg 47%
    02:00 +21°C° 0 mm 10 m/S 720 mmHg 52%
    03:00 +18°C° 0 mm 10 m/S 720 mmHg 58%
    04:00 +18°C° 0 mm 9 m/S 721 mmHg 56%
    05:00 +17°C° 0 mm 9 m/S 721 mmHg 55%
    06:00 +16°C° 0 mm 8 m/S 721 mmHg 53%
    07:00 +17°C° 0 mm 8 m/S 722 mmHg 49%
    08:00 +17°C° 0 mm 9 m/S 722 mmHg 45%
    09:00 +17°C° 0 mm 9 m/S 722 mmHg 41%
    10:00 +19°C° 0 mm 9 m/S 722 mmHg 35%
    11:00 +22°C° 0 mm 9 m/S 722 mmHg 29%
    12:00 +24°C° 0 mm 9 m/S 722 mmHg 23%
    13:00 +27°C° 0 mm 8 m/S 721 mmHg 21%
    14:00 +28°C° 0 mm 8 m/S 721 mmHg 18%
    15:00 +29°C° 0 mm 7 m/S 720 mmHg 16%
    16:00 +28°C° 0 mm 7 m/S 720 mmHg 16%
    17:00 +27°C° 0 mm 7 m/S 720 mmHg 17%
    18:00 +26°C° 0 mm 7 m/S 720 mmHg 18%
    19:00 +24°C° 0 mm 6 m/S 721 mmHg 20%
    20:00 +22°C° 0 mm 6 m/S 721 mmHg 22%
    21:00 +21°C° 0 mm 5 m/S 722 mmHg 24%
    22:00 +20°C° 0 mm 5 m/S 722 mmHg 25%
    23:00 +19°C° 0 mm 5 m/S 722 mmHg 27%

    übermorgen, 31 März, Freitag

    Zeit Temperatur Niederschläge Wind Luftdruck Luftfeuchtigkeit
    00:00 +17°C° 0 mm 5 m/S 722 mmHg 28%
    01:00 +17°C° 0 mm 5 m/S 722 mmHg 29%
    02:00 +17°C° 0 mm 5 m/S 722 mmHg 29%
    03:00 +16°C° 0 mm 5 m/S 721 mmHg 30%
    04:00 +16°C° 0 mm 5 m/S 721 mmHg 30%
    05:00 +16°C° 0 mm 5 m/S 721 mmHg 30%
    06:00 +16°C° 0 mm 5 m/S 721 mmHg 29%
    07:00 +17°C° 0 mm 6 m/S 722 mmHg 27%
    08:00 +19°C° 0 mm 6 m/S 722 mmHg 25%
    09:00 +20°C° 0 mm 6 m/S 722 mmHg 23%
    10:00 +22°C° 0 mm 6 m/S 722 mmHg 21%
    11:00 +25°C° 0 mm 5 m/S 722 mmHg 19%
    12:00 +26°C° 0 mm 5 m/S 721 mmHg 16%
    13:00 +27°C° 0 mm 5 m/S 721 mmHg 15%
    14:00 +28°C° 0 mm 5 m/S 720 mmHg 13%
    15:00 +29°C° 0 mm 5 m/S 720 mmHg 12%
    16:00 +28°C° 0 mm 5 m/S 720 mmHg 13%
    17:00 +27°C° 0 mm 5 m/S 720 mmHg 14%
    18:00 +27°C° 0 mm 4 m/S 720 mmHg 14%
    19:00 +25°C° 0 mm 5 m/S 720 mmHg 17%
    20:00 +23°C° 0 mm 5 m/S 721 mmHg 19%
    21:00 +21°C° 0 mm 5 m/S 721 mmHg 21%
    22:00 +20°C° 0 mm 5 m/S 721 mmHg 23%
    23:00 +19°C° 0 mm 5 m/S 721 mmHg 25%

    1 April, Samstag

    Zeit Temperatur Niederschläge Wind Luftdruck Luftfeuchtigkeit
    00:00 +19°C° 0 mm 5 m/S 721 mmHg 27%
    01:00 +18°C° 0 mm 4 m/S 721 mmHg 29%
    02:00 +17°C° 0 mm 4 m/S 721 mmHg 31%
    03:00 +17°C° 0 mm 4 m/S 720 mmHg 33%
    04:00 +15°C° 0 mm 4 m/S 721 mmHg 34%
    05:00 +15°C° 0 mm 4 m/S 721 mmHg 35%
    06:00 +15°C° 0 mm 4 m/S 721 mmHg 37%
    07:00 +16°C° 0 mm 5 m/S 722 mmHg 33%
    08:00 +19°C° 0 mm 6 m/S 722 mmHg 30%
    09:00 +21°C° 0 mm 7 m/S 723 mmHg 26%
    10:00 +23°C° 0 mm 7 m/S 723 mmHg 24%
    11:00 +26°C° 0 mm 8 m/S 722 mmHg 21%
    12:00 +27°C° 0 mm 8 m/S 722 mmHg 18%
    13:00 +28°C° 0 mm 8 m/S 722 mmHg 17%
    14:00 +28°C° 0 mm 8 m/S 721 mmHg 16%
    15:00 +29°C° 0 mm 8 m/S 720 mmHg 15%
    16:00 +28°C° 0 mm 7 m/S 721 mmHg 16%
    17:00 +27°C° 0 mm 7 m/S 721 mmHg 18%
    18:00 +26°C° 0 mm 6 m/S 721 mmHg 20%
    19:00 +23°C° 0 mm 6 m/S 721 mmHg 22%
    20:00 +22°C° 0 mm 6 m/S 722 mmHg 25%
    21:00 +21°C° 0 mm 5 m/S 722 mmHg 27%
    22:00 +20°C° 0 mm 5 m/S 722 mmHg 30%
    23:00 +19°C° 0 mm 5 m/S 722 mmHg 32%

    2 April, Sonntag

    Zeit Temperatur Niederschläge Wind Luftdruck Luftfeuchtigkeit
    00:00 +19°C° 0 mm 5 m/S 722 mmHg 34%
    01:00 +17°C° 0 mm 5 m/S 722 mmHg 36%
    02:00 +16°C° 0 mm 5 m/S 722 mmHg 38%
    03:00 +16°C° 0 mm 5 m/S 722 mmHg 40%
    04:00 +15°C° 0 mm 5 m/S 722 mmHg 41%
    05:00 +15°C° 0 mm 6 m/S 722 mmHg 42%
    06:00 +15°C° 0 mm 6 m/S 723 mmHg 43%
    07:00 +16°C° 0 mm 7 m/S 723 mmHg 39%
    08:00 +18°C° 0 mm 8 m/S 723 mmHg 34%
    09:00 +21°C° 0 mm 9 m/S 724 mmHg 30%
    10:00 +22°C° 0 mm 9 m/S 723 mmHg 26%
    11:00 +24°C° 0 mm 9 m/S 723 mmHg 23%
    12:00 +27°C° 0 mm 8 m/S 723 mmHg 19%
    13:00 +28°C° 0 mm 8 m/S 722 mmHg 18%
    14:00 +28°C° 0 mm 8 m/S 722 mmHg 16%
    15:00 +29°C° 0 mm 8 m/S 721 mmHg 15%
    16:00 +28°C° 0 mm 7 m/S 721 mmHg 16%
    17:00 +27°C° 0 mm 7 m/S 722 mmHg 18%
    18:00 +26°C° 0 mm 6 m/S 722 mmHg 19%
    19:00 +24°C° 0 mm 6 m/S 722 mmHg 21%
    20:00 +22°C° 0 mm 6 m/S 723 mmHg 24%
    21:00 +21°C° 0 mm 6 m/S 723 mmHg 26%
    22:00 +20°C° 0 mm 6 m/S 723 mmHg 27%
    23:00 +19°C° 0 mm 6 m/S 723 mmHg 28%

    3 April, Montag

    Zeit Temperatur Niederschläge Wind Luftdruck Luftfeuchtigkeit
    00:00 +19°C° 0 mm 5 m/S 723 mmHg 29%
    01:00 +17°C° 0 mm 5 m/S 723 mmHg 32%
    02:00 +17°C° 0 mm 5 m/S 722 mmHg 34%
    03:00 +16°C° 0 mm 5 m/S 722 mmHg 36%
    04:00 +16°C° 0 mm 5 m/S 723 mmHg 38%
    05:00 +15°C° 0 mm 5 m/S 723 mmHg 41%
    06:00 +15°C° 0 mm 5 m/S 723 mmHg 43%
    07:00 +17°C° 0 mm 6 m/S 723 mmHg 39%
    08:00 +20°C° 0 mm 7 m/S 724 mmHg 34%
    09:00 +21°C° 0 mm 8 m/S 724 mmHg 30%
    10:00 +23°C° 0 mm 8 m/S 724 mmHg 27%
    11:00 +26°C° 0 mm 8 m/S 723 mmHg 23%
    12:00 +27°C° 0 mm 8 m/S 723 mmHg 19%
    13:00 +28°C° 0 mm 8 m/S 722 mmHg 18%
    14:00 +29°C° 0 mm 7 m/S 722 mmHg 16%
    15:00 +30°C° 0 mm 7 m/S 721 mmHg 15%
    16:00 +28°C° 0 mm 6 m/S 721 mmHg 16%
    17:00 +27°C° 0 mm 6 m/S 721 mmHg 17%
    18:00 +26°C° 0 mm 5 m/S 721 mmHg 18%
    19:00 +25°C° 0 mm 5 m/S 722 mmHg 20%
    20:00 +22°C° 0 mm 5 m/S 722 mmHg 22%
    21:00 +21°C° 0 mm 5 m/S 722 mmHg 24%
    22:00 +20°C° 0 mm 5 m/S 722 mmHg 24%
    23:00 +19°C° 0 mm 5 m/S 722 mmHg 25%
    Mehr zeigen